This is the latest recevied weather packets stored in our database for station/object OE3MHU-13. If no packets are shown the sender has not sent any weather packets the latest 10 day(s).
| Time | Temp. | Humidity | Pressure | Rain* | Wind** | Luminosity | Snow |
|---|---|---|---|---|---|---|---|
| 1787581162 | 27.78° C | 40% | 1021 hPa | 0 mm | - | - | - |
| 1787580862 | 27.78° C | 40% | 1021 hPa | 0 mm | - | - | - |
| 1787580561 | 28.33° C | 39% | 1021 hPa | 0 mm | - | - | - |
| 1787580255 | 29.44° C | 37% | 1021.1 hPa | 0 mm | - | - | - |
| 1787579949 | 30° C | 37% | 1021.2 hPa | 0 mm | - | - | - |
| 1787579643 | 30° C | 38% | 1021.1 hPa | 0 mm | - | - | - |
| 1787579628 | 29.44° C | 39% | 1021.2 hPa | 0 mm | - | - | - |
| 1787579032 | 28.89° C | 40% | 1021.2 hPa | 0 mm | - | - | - |
| 1787578725 | 28.33° C | 39% | 1021.2 hPa | 0 mm | - | - | - |
| 1787578551 | 30° C | 37% | 1021.4 hPa | 0 mm | - | - | - |
| 1787578540 | 29.44° C | 37% | 1021.3 hPa | 0 mm | - | - | - |
| 1787577820 | 29.44° C | 38% | 1021.5 hPa | 0 mm | - | - | - |
| 1787577521 | 29.44° C | 37% | 1021.5 hPa | 0 mm | - | - | - |
| 1787577219 | 30° C | 38% | 1021.6 hPa | 0 mm | - | - | - |
| 1787576917 | 30.56° C | 37% | 1021.6 hPa | 0 mm | - | - | - |
| 1787576617 | 30.56° C | 36% | 1021.7 hPa | 0 mm | - | - | - |
| 1787576321 | 29.44° C | 38% | 1021.8 hPa | 0 mm | - | - | - |
| 1787576015 | 28.33° C | 39% | 1021.9 hPa | 0 mm | - | - | - |
| 1787575715 | 28.89° C | 39% | 1021.9 hPa | 0 mm | - | - | - |
| 1787575414 | 29.44° C | 39% | 1022 hPa | 0 mm | - | - | - |
| 1787575114 | 29.44° C | 40% | 1021.9 hPa | 0 mm | - | - | - |
| 1787574814 | 28.89° C | 38% | 1022 hPa | 0 mm | - | - | - |
| 1787574516 | 28.89° C | 38% | 1022 hPa | 0 mm | - | - | - |
| 1787574355 | 29.44° C | 37% | 1022 hPa | 0 mm | - | - | - |
| 1787573914 | 29.44° C | 37% | 1022 hPa | 0 mm | - | - | - |
* Rain latest hour (hover to see other rain measurements)
** Current wind speed in m/s (hover to see current wind gust speed)